This is the latest recevied weather packets stored in our database for station/object NI4CE-10. If no packets are shown the sender has not sent any weather packets the latest 10 day(s).
| Time | Temp. | Humidity | Pressure | Rain* | Wind** | Luminosity | Snow |
|---|---|---|---|---|---|---|---|
| 1777144308 | 30° C | 100% | 1013.7 hPa | 0 mm | - | - | - |
| 1777144008 | 29.44° C | 100% | 1013.5 hPa | 0 mm | - | - | - |
| 1777143708 | 29.44° C | 100% | 1013.4 hPa | 0 mm | - | - | - |
| 1777143408 | 29.44° C | 100% | 1013.6 hPa | 0 mm | - | - | - |
| 1777143162 | 28.89° C | 100% | 1013.7 hPa | 0 mm | - | - | - |
| 1777143108 | 29.44° C | 100% | 1013.8 hPa | 0 mm | - | - | - |
| 1777143003 | 28.89° C | 100% | 1014 hPa | 0 mm | - | - | - |
| 1777142808 | 28.89° C | 100% | 1014 hPa | 0 mm | - | - | - |
| 1777142508 | 28.89° C | 100% | 1013.7 hPa | 0 mm | - | - | - |
| 1777142208 | 28.89° C | 100% | 1013.8 hPa | 0 mm | - | - | - |
| 1777141908 | 28.89° C | 100% | 1013.9 hPa | 0 mm | - | - | - |
| 1777141608 | 29.44° C | 100% | 1014 hPa | 0 mm | - | - | - |
| 1777141309 | 29.44° C | 100% | 1014 hPa | 0 mm | - | - | - |
| 1777141009 | 29.44° C | 100% | 1014 hPa | 0 mm | - | - | - |
| 1777140709 | 30° C | 100% | 1013.9 hPa | 0 mm | - | - | - |
| 1777140409 | 30° C | 100% | 1013.9 hPa | 0 mm | - | - | - |
| 1777140109 | 30.56° C | 100% | 1013.9 hPa | 0 mm | - | - | - |
| 1777139809 | 31.67° C | 100% | 1014 hPa | 0 mm | - | - | - |
| 1777139509 | 32.22° C | 100% | 1014 hPa | 0 mm | - | - | - |
| 1777139209 | 31.67° C | 100% | 1014.1 hPa | 0 mm | - | - | - |
| 1777138909 | 31.11° C | 100% | 1014 hPa | 0 mm | - | - | - |
| 1777138609 | 30° C | 100% | 1014.2 hPa | 0 mm | - | - | - |
| 1777138309 | 31.11° C | 100% | 1014.1 hPa | 0 mm | - | - | - |
| 1777138009 | 30.56° C | 100% | 1014.1 hPa | 0 mm | - | - | - |
| 1777137709 | 31.67° C | 100% | 1014.1 hPa | 0 mm | - | - | - |
* Rain latest hour (hover to see other rain measurements)
** Current wind speed in m/s (hover to see current wind gust speed)